Temp
64 67 69 68 66 66 63 66 59 64 67 74 79 80 82 84 85 85 85 85 86 85 85 85 84 83 83 83 82 82 80 79 76 75 75 75 74 73 74 73 73 73 71 70
57 66 67 64 69 68 68 69 68 68 68 81 84 83 83 83 84 83 84 85 85 85 85 84 84 82 82 82 81 82 79 79 79 76 74 74 73 73 73 72 72 72 71 69
51 62 63 56 65 69 69 71 70 64 71 79 79 81 82 82 84 83 83 83 81 81 81 82 83 84 82 82 82 80 79 79 79 77 74 73 73 72 71 69 71 69 69 69
51 58 41 63 75 75 71 72 75 75 76 79 80 83 84 86 84 83 83 80 79 80 79 80 82 82 83 84 81 79 79 79 78 77 75 74 72 70 69 67 65 65 66 68
46 50 58 64 70 69 68 68 77 75 77 80 83 83 79 84 83 82 79 79 79 78 78 79 80 81 82 82 81 79 77 77 78 76 75 73 70 68 66 64 62 62 64 64
49 46 43 62 74 79 77 61 78 79 78 78 80 67 72 77 79 78 77 77 77 77 77 76 77 80 80 79 78 77 77 77 77 76 74 71 69 65 64 62 60 58 59 62
45 47 57 71 76 78 56 61 78 79 79 78 72 77 81 76 75 77 77 76 77 77 75 75 77 78 77 76 75 76 76 75 74 73 71 70 68 64 62 61 60 57 58 60
48 46 45 75 70 62 70 76 78 80 80 78 76 73 73 74 74 74 75 76 76 74 74 76 78 78 75 73 74 74 74 73 72 72 71 70 66 63 61 59 57 55 53 53
53 54 61 66 66 68 70 72 75 77 81 75 70 70 72 71 73 73 75 76 76 73 71 73 75 75 71 72 74 72 72 71 70 70 69 68 67 61 59 59 55 53 51 49
47 54 58 61 64 68 72 72 75 77 73 72 69 70 70 71 71 71 73 73 73 72 70 69 71 70 71 71 71 71 70 69 69 68 67 67 67 65 60 57 55 53 51 50
42 50 54 56 62 66 69 71 71 72 72 70 69 69 70 69 69 69 69 70 71 69 68 68 69 69 69 69 69 69 68 69 68 68 65 65 66 66 64 63 58 55 54 53
50 59 60 56 61 64 63 65 68 69 68 70 70 68 68 66 67 67 66 67 66 66 66 67 68 68 67 66 66 65 65 67 66 65 65 66 65 65 46 41 42 40 41 46
61 69 64 63 64 65 62 64 65 65 64 62 64 62 61 61 60 54 62 63 63 63 64 64 63 64 63 62 62 62 61 62 64 59 65 64 64 63 60 49 38 39 38 39
66 61 57 60 56 61 59 59 57 59 59 58 59 60 58 58 58 58 57 58 59 60 60 60 60 59 59 60 60 59 59 42 60 62 63 63 64 64 63 56 53 52 38 39
60 62 59 57 56 56 57 56 53 48 46 46 50 51 52 53 54 54 55 57 57 57 57 57 57 56 59 58 58 57 58 59 59 59 59 55 59 60 60 59 57 55 50 37
60 59 57 55 56 56 55 56 54 53 54 53 53 53 55 56 56 56 56 56 55 55 57 53 51 57 58 57 56 57 58 43 43 56 57 58 59 58 58 57 57 55 51 48
47 48 49 50 50 53 56 58 58 57 56 54 54 55 55 55 55 55 56 56 56 55 56 56 56 59 58 56 56 56 57 56 41 53 55 55 54 53 54 53 54 54 53 44
48 48 50 50 54 57 57 58 57 57 56 57 56 55 52 49 53 54 54 55 53 53 56 58 59 58 57 56 56 55 54 54 53 51 50 49 49 49 48 48 49 50 52 50
51 50 52 53 56 56 56 55 56 57 56 55 54 53 54 52 55 55 56 46 39 50 55 60 39 45 55 51 48 53 52 51 50 49 48 43 45 47 47 47 47 49 49 48
49 51 51 51 53 54 54 56 57 56 57 56 54 42 47 36 38 38 47 49 53 55 59 58 54 56 56 53 38 52 50 50 49 49 47 47 46 44 44 40 41 41 41 45
52 52 53 54 53 54 54 56 54 55 56 54 50 39 36 45 42 34 42 45 53 55 56 47 55 56 57 52 50 51 50 49 48 48 47 47 45 45 42 41 41 39 38 39
53 51 49 50 52 51 54 56 56 48 47 35 35 33 34 39 38 38 39 46 51 42 50 54 54 48 51 39 53 51 50 49 48 48 47 46 45 41 39 39 37 36 36 36
54 53 50 35 36 48 42 42 34 37 34 34 34 39 43 47 49 47 44 52 51 46 49 51 46 38 37 46 50 49 48 47 46 46 45 43 42 39 39 38 36 35 34 35
54 53 50 51 42 47 46 51 49 53 37 36 37 35 42 45 45 50 51 44 39 37 42 48 42 37 35 45 45 43 43 44 44 43 44 39 37 38 38 36 35 35 35 34
52 51 51 50 50 51 52 53 52 52 52 52 52 52 51 49 43 44 46 46 38 39 44 38 36 35 36 37 37 37 37 38 37 37 37 36 35 34 34 35 34 34 34 34
53 53 54 54 53 53 52 52 50 51 51 50 51 51 51 51 51 49 48 41 39 39 38 36 35 35 35 35 35 34 35 36 36 36 35 36 35 35 35 35 34 34 33 33
53 43 51 51 53 54 53 52 49 48 48 47 42 46 46 46 45 44 42 40 38 36 35 35 35 35 35 35 35 35 35 35 34 35 35 34 34 33 33 33 33 33 33 33
MSLP
997.59 997.32 996.43 995.99 996.50 997.05 996.92 996.07 997.14 996.00 995.92 995.30 995.10 995.60 996.28 997.02 997.46 998.21 999.10 999.90 1000.54 1001.40 1002.27 1003.07 1004.14 1005.10 1005.90 1006.58 1007.39 1008.07 1008.67 1009.28 1010.00 1011.12 1012.00 1012.70 1013.35 1013.99 1014.58 1015.22 1015.82 1016.40 1017.15 1017.86
997.86 996.66 996.14 995.02 994.67 995.31 995.85 995.14 995.49 995.90 995.09 994.98 994.64 995.18 995.66 996.34 997.27 997.95 998.78 999.78 1000.50 1001.31 1002.15 1002.80 1003.63 1004.63 1005.49 1006.10 1006.80 1007.49 1008.10 1008.59 1009.37 1010.32 1011.22 1011.85 1012.50 1013.15 1013.79 1014.35 1014.88 1015.44 1015.92 1016.82
997.54 996.33 995.43 994.04 993.66 993.34 993.55 994.40 994.18 994.24 994.02 994.72 994.21 994.29 994.79 995.78 996.66 997.79 999.05 1000.00 1001.16 1001.83 1002.55 1003.13 1003.52 1004.10 1004.79 1005.67 1006.38 1007.06 1007.70 1008.30 1008.86 1009.64 1010.42 1011.08 1011.83 1012.40 1012.90 1013.54 1014.14 1014.62 1015.20 1015.90
997.34 995.77 993.49 993.30 992.86 992.67 992.64 993.02 993.38 993.29 993.74 994.02 994.13 994.41 995.28 995.76 996.80 998.00 999.14 1000.74 1001.62 1002.04 1002.80 1003.42 1003.82 1004.30 1004.64 1005.10 1005.90 1006.71 1007.34 1007.88 1008.47 1009.08 1009.81 1010.55 1011.22 1011.72 1012.38 1013.04 1013.73 1014.34 1014.76 1015.44
997.12 994.93 993.89 992.44 991.95 992.10 991.68 991.66 992.08 992.51 993.14 993.31 993.71 994.36 995.42 996.51 997.82 998.99 1000.33 1001.49 1002.10 1002.55 1003.05 1003.48 1003.77 1004.33 1004.63 1004.88 1005.44 1006.30 1007.00 1007.53 1008.11 1008.77 1009.41 1010.06 1010.77 1011.51 1012.21 1012.90 1013.58 1014.09 1014.54 1015.11
997.58 994.67 992.70 991.65 991.41 991.54 991.68 990.65 991.53 991.88 992.36 992.90 993.68 994.62 996.09 998.18 999.22 1000.13 1001.34 1002.29 1002.58 1002.86 1003.19 1003.68 1004.09 1004.50 1004.61 1004.98 1005.62 1006.27 1006.87 1007.46 1008.06 1008.66 1009.31 1009.90 1010.61 1011.42 1012.20 1012.88 1013.47 1013.96 1014.50 1014.94
998.00 994.88 992.38 991.60 991.03 991.19 991.04 990.90 990.95 991.45 991.92 992.88 994.07 995.09 996.03 998.69 1000.20 1001.04 1001.76 1002.42 1002.66 1003.06 1003.53 1003.93 1004.55 1004.80 1004.98 1005.58 1006.03 1006.68 1007.35 1007.91 1008.45 1009.01 1009.57 1010.08 1010.71 1011.58 1012.38 1012.87 1013.38 1013.90 1014.35 1014.83
997.54 995.37 993.06 991.66 991.86 991.73 991.74 991.51 991.24 990.97 991.55 992.89 994.97 997.22 998.04 999.18 1000.23 1001.25 1001.84 1002.42 1002.98 1003.43 1003.93 1004.51 1004.89 1005.04 1005.57 1006.35 1007.05 1007.57 1008.01 1008.44 1008.86 1009.26 1009.67 1010.12 1010.86 1011.58 1012.24 1012.78 1013.38 1013.80 1014.23 1014.75
996.74 995.51 994.95 994.40 994.08 993.84 993.45 992.37 992.18 991.74 992.00 993.90 996.50 998.41 999.34 1000.04 1000.84 1001.56 1002.00 1002.58 1003.36 1004.12 1004.97 1005.62 1005.76 1006.02 1006.74 1007.25 1007.60 1008.04 1008.40 1008.74 1009.18 1009.62 1009.97 1010.43 1010.74 1011.54 1012.25 1012.74 1013.32 1013.86 1014.40 1015.04
997.72 996.89 996.22 996.10 995.92 995.21 994.24 993.71 993.66 993.69 994.59 996.05 997.72 999.32 1000.27 1001.04 1001.78 1002.48 1003.03 1003.59 1004.17 1004.90 1005.62 1006.34 1007.03 1007.38 1007.66 1008.07 1008.34 1008.48 1008.66 1009.06 1009.52 1009.88 1010.16 1010.53 1010.83 1011.27 1011.98 1012.52 1013.02 1013.50 1013.94 1014.33
998.51 997.49 997.48 997.23 996.94 996.23 995.82 995.72 995.76 996.41 997.03 998.06 999.30 1000.42 1001.18 1001.96 1002.86 1003.70 1004.34 1004.82 1005.38 1006.00 1006.56 1007.00 1007.46 1008.05 1008.53 1008.81 1008.97 1008.99 1009.26 1009.42 1009.78 1009.92 1010.33 1010.50 1010.62 1010.78 1011.30 1011.76 1012.40 1012.94 1013.34 1013.74
996.30 996.87 996.10 996.53 996.80 997.78 997.48 997.84 998.24 998.23 998.86 999.96 1000.76 1001.48 1002.48 1003.46 1004.23 1004.75 1005.52 1006.02 1006.59 1007.09 1007.41 1007.71 1008.14 1008.59 1009.18 1009.59 1009.72 1009.78 1009.77 1009.64 1009.80 1010.18 1010.24 1010.17 1010.35 1010.49 1011.09 1011.68 1012.35 1012.76 1013.04 1013.29
995.22 994.91 996.00 997.33 998.10 998.95 999.10 999.78 1000.44 1000.90 1001.26 1001.99 1003.01 1003.92 1004.38 1005.36 1006.28 1006.46 1006.70 1007.29 1007.50 1008.10 1008.30 1008.62 1009.08 1009.35 1009.93 1010.28 1010.39 1010.36 1010.39 1010.45 1010.35 1010.36 1010.10 1010.03 1010.15 1010.18 1010.46 1011.52 1012.09 1012.56 1012.85 1013.28
995.68 996.64 997.69 998.51 999.59 1000.88 1001.52 1002.35 1003.08 1003.10 1003.75 1004.78 1005.38 1006.00 1006.23 1006.70 1007.38 1007.63 1007.86 1008.44 1008.74 1008.86 1009.06 1009.48 1009.80 1010.27 1010.68 1010.78 1010.82 1010.84 1010.94 1011.00 1010.75 1010.42 1010.23 1010.08 1009.93 1009.82 1009.98 1010.56 1011.30 1011.81 1012.41 1012.95
997.72 997.60 998.68 1000.08 1000.84 1001.46 1001.98 1003.39 1003.76 1004.56 1005.63 1006.43 1007.18 1007.55 1007.66 1007.71 1007.98 1008.53 1008.99 1009.18 1009.54 1009.81 1010.01 1010.31 1010.49 1010.69 1010.87 1011.11 1011.07 1011.12 1011.08 1010.93 1011.00 1011.04 1010.88 1010.75 1010.64 1010.39 1010.22 1010.27 1010.34 1010.83 1011.42 1012.78
999.24 999.74 1000.65 1001.17 1001.69 1002.55 1003.20 1003.48 1003.82 1004.76 1005.93 1006.82 1007.62 1008.04 1008.26 1008.41 1008.48 1009.04 1009.36 1009.66 1009.76 1009.92 1010.18 1010.71 1011.01 1010.79 1011.18 1011.34 1011.24 1011.22 1011.14 1011.39 1011.63 1011.45 1011.04 1010.73 1010.46 1010.18 1009.98 1009.87 1009.76 1009.93 1010.40 1011.13
1002.09 1002.37 1002.62 1002.60 1003.22 1003.26 1003.47 1003.94 1004.48 1005.26 1006.12 1006.94 1007.76 1008.41 1008.85 1009.12 1009.30 1009.62 1009.95 1010.17 1010.34 1010.49 1010.62 1010.71 1010.70 1010.80 1011.01 1011.22 1011.25 1011.22 1011.19 1011.25 1011.50 1011.60 1011.22 1011.06 1010.92 1010.68 1010.43 1010.16 1009.77 1009.57 1009.62 1010.06
1004.41 1004.78 1004.50 1004.40 1003.99 1004.04 1004.08 1004.52 1005.18 1005.96 1006.67 1007.54 1008.35 1008.83 1009.36 1009.78 1009.72 1009.85 1009.98 1010.21 1010.51 1010.52 1010.36 1010.21 1010.25 1010.58 1010.84 1011.04 1011.14 1011.21 1011.35 1011.35 1011.44 1011.52 1011.53 1011.44 1011.39 1011.27 1011.00 1010.66 1010.26 1009.87 1009.56 1009.72
1005.26 1005.54 1005.53 1005.38 1005.30 1005.53 1005.56 1005.74 1006.18 1006.80 1007.61 1008.20 1008.66 1009.03 1009.41 1009.85 1009.89 1009.76 1009.72 1010.12 1010.40 1010.19 1009.84 1009.64 1010.67 1010.92 1010.73 1010.74 1011.16 1011.23 1011.26 1011.27 1011.30 1011.30 1011.35 1011.38 1011.35 1011.06 1010.72 1010.37 1010.06 1009.74 1009.64 1009.58
1006.00 1006.30 1006.31 1006.22 1006.31 1006.32 1006.35 1006.52 1006.84 1007.22 1007.69 1008.18 1008.76 1009.44 1009.84 1010.15 1010.52 1010.67 1010.58 1010.27 1009.90 1009.60 1009.43 1009.50 1010.07 1010.11 1010.12 1010.09 1010.73 1010.76 1010.79 1010.79 1010.74 1010.68 1010.74 1010.76 1010.70 1010.60 1010.47 1010.32 1010.30 1009.98 1009.68 1009.37
1006.10 1006.16 1006.34 1006.32 1006.59 1006.72 1006.88 1007.14 1007.51 1007.64 1008.00 1008.55 1009.19 1009.52 1009.94 1010.02 1010.28 1010.67 1010.56 1009.94 1009.37 1009.05 1008.96 1009.15 1009.37 1009.36 1009.40 1009.53 1009.83 1010.02 1010.14 1010.15 1010.18 1010.11 1010.00 1009.93 1009.85 1009.86 1009.95 1009.89 1009.68 1009.44 1009.15 1008.82
1006.38 1006.89 1007.28 1007.37 1007.17 1007.36 1007.52 1007.60 1007.69 1008.23 1008.74 1009.16 1009.53 1009.74 1009.86 1009.92 1009.92 1009.85 1009.57 1009.20 1008.79 1008.73 1008.65 1008.48 1008.60 1008.80 1008.94 1009.00 1009.01 1009.03 1009.20 1009.28 1009.28 1009.32 1009.29 1009.24 1009.18 1009.12 1009.22 1009.21 1008.99 1008.82 1008.54 1008.14
1006.53 1006.79 1007.26 1008.03 1008.13 1007.99 1008.28 1008.16 1008.20 1008.59 1008.84 1009.12 1009.37 1009.48 1009.33 1008.93 1008.58 1008.41 1008.02 1007.97 1007.92 1008.12 1008.26 1008.10 1008.02 1008.21 1008.54 1008.67 1008.49 1008.43 1008.48 1008.54 1008.53 1008.49 1008.48 1008.54 1008.60 1008.62 1008.59 1008.38 1008.15 1007.95 1007.64 1007.31
1006.97 1007.20 1007.52 1007.76 1007.94 1008.04 1008.02 1007.54 1007.81 1007.56 1008.34 1008.66 1008.95 1008.83 1008.68 1008.26 1007.90 1007.75 1007.34 1007.51 1007.75 1007.86 1007.87 1007.52 1007.64 1007.90 1008.16 1008.07 1008.00 1008.10 1008.08 1007.95 1007.83 1007.74 1007.68 1007.67 1007.72 1007.73 1007.66 1007.53 1007.34 1007.08 1006.74 1006.42
1007.37 1007.54 1007.74 1007.80 1007.42 1007.26 1007.13 1007.09 1007.16 1007.26 1007.33 1007.20 1007.10 1007.11 1007.17 1007.32 1007.38 1007.30 1007.26 1007.16 1007.31 1007.41 1007.25 1007.19 1007.36 1007.54 1007.81 1007.85 1007.81 1007.72 1007.57 1007.43 1007.30 1007.27 1007.16 1007.04 1006.98 1006.95 1006.88 1006.75 1006.47 1006.13 1005.79 1005.37
1006.94 1006.82 1006.78 1006.80 1006.78 1006.79 1006.87 1006.92 1006.83 1006.80 1006.75 1006.59 1006.52 1006.57 1006.53 1006.53 1006.47 1006.39 1006.49 1006.61 1006.85 1006.92 1006.97 1006.95 1006.96 1007.01 1007.06 1007.13 1007.07 1007.08 1006.91 1006.67 1006.52 1006.36 1006.32 1006.18 1006.10 1006.00 1005.86 1005.71 1005.48 1005.16 1004.79 1004.34
1006.62 1006.68 1006.69 1006.62 1006.56 1006.43 1006.48 1006.62 1006.60 1006.62 1006.76 1006.75 1006.72 1006.84 1006.69 1006.48 1006.26 1006.18 1006.12 1006.18 1006.23 1006.30 1006.32 1006.25 1006.25 1006.21 1006.12 1006.07 1005.97 1005.83 1005.76 1005.74 1005.66 1005.58 1005.52 1005.45 1005.38 1005.26 1005.14 1004.92 1004.62 1004.27 1003.89 1003.37
Wind_Speed
29 34 32 31 29 29 30 31 25 23 25 22 21 15 16 15 16 19 18 16 15 15 14 15 15 14 14 15 16 17 18 19 17 17 17 17 17 17 16 16 16 16 16 16
32 33 34 36 32 31 31 34 32 29 29 23 20 21 21 18 18 18 15 15 12 10 10 12 13 13 14 14 15 16 17 17 17 17 18 17 16 16 16 16 17 17 17 17
28 33 31 31 33 30 31 29 30 28 27 24 22 20 20 20 20 19 17 15 13 12 10 8 8 11 13 14 13 14 15 15 15 16 17 17 17 17 17 16 16 17 17 17
21 28 34 19 29 33 28 24 28 28 24 25 27 13 11 13 14 15 15 12 10 10 9 9 7 7 9 12 13 13 13 13 14 15 15 15 15 16 14 13 14 13 14 15
18 23 21 27 27 29 29 29 26 25 24 24 19 16 10 7 10 12 10 11 9 8 8 8 7 7 9 10 11 11 12 12 12 12 13 14 14 12 10 9 9 11 10 13
17 24 28 21 25 21 19 23 26 22 20 21 14 13 13 13 11 13 12 11 10 11 10 9 7 7 8 9 9 9 9 9 9 9 10 11 9 7 4 5 6 4 7 10
18 17 18 24 21 25 27 18 21 24 21 20 16 12 12 20 16 14 13 13 13 12 11 11 8 7 8 8 7 6 5 5 6 7 8 8 5 5 7 7 6 6 8 9
19 19 15 10 9 14 8 6 10 20 20 20 16 14 20 20 18 15 15 15 15 13 12 10 9 9 11 10 8 7 7 6 6 6 5 5 6 4 5 5 6 4 4 3
10 12 6 11 12 7 2 3 4 6 11 23 21 19 18 18 17 15 14 14 14 14 14 11 10 11 11 8 8 7 6 5 5 5 5 5 7 7 6 7 6 6 7 7
6 4 4 3 3 5 3 6 7 13 21 21 21 19 18 17 16 13 13 13 13 14 13 13 12 11 11 9 6 5 3 4 3 3 3 4 4 5 6 7 7 7 7 8
8 3 2 2 3 3 8 10 14 17 18 20 20 19 18 16 16 14 12 12 11 11 11 11 10 10 10 9 7 6 4 2 2 3 3 5 6 6 7 9 9 8 8 8
12 21 12 14 10 11 12 14 12 17 19 18 17 17 17 15 13 12 11 11 10 9 9 8 8 7 8 8 7 6 5 4 4 4 5 5 6 6 8 6 2 5 1 5
13 6 18 18 17 17 18 17 17 17 18 18 16 14 15 13 12 11 11 9 9 7 7 7 6 6 7 7 7 6 6 6 5 5 6 6 7 8 8 4 3 7 8 8
10 19 20 21 20 20 21 21 19 19 18 15 13 13 13 12 10 9 9 8 7 6 6 6 6 6 6 6 6 6 6 2 6 6 8 7 9 9 9 5 5 5 10 10
13 10 17 19 18 18 18 15 17 16 13 13 10 8 7 8 7 7 6 5 5 4 4 3 4 4 4 5 5 6 5 5 6 7 7 8 10 11 10 10 8 7 2 3
12 17 17 18 19 17 17 16 17 16 14 13 11 9 7 7 7 5 4 4 1 1 1 2 4 4 2 4 5 5 5 1 3 7 7 8 8 9 10 10 9 8 6 5
13 14 14 15 12 14 14 13 12 12 12 10 9 7 6 5 5 5 5 5 3 3 3 5 5 4 3 4 5 4 5 6 3 7 8 8 9 10 10 10 10 9 8 5
12 10 9 8 9 11 13 12 12 11 9 9 8 6 5 2 3 4 5 4 3 3 5 5 4 3 4 5 5 4 5 5 5 6 7 7 8 8 10 11 12 12 11 7
15 11 9 11 9 8 9 10 9 8 8 7 7 6 6 6 5 4 3 2 1 7 7 5 6 4 7 5 3 4 6 6 6 6 7 7 9 10 10 11 12 11 12 10
11 11 11 10 8 8 7 6 5 5 5 5 4 3 3 2 4 3 6 8 9 8 9 8 7 9 9 6 7 6 7 8 8 8 7 8 9 10 10 10 12 11 11 12
10 9 8 7 7 6 4 5 1 2 3 2 4 3 6 6 4 5 6 8 12 12 11 9 10 9 9 8 7 8 9 9 9 9 9 9 9 10 9 10 11 10 11 11
6 7 6 5 5 5 4 2 3 4 3 3 2 3 3 8 8 9 12 13 8 9 8 9 10 11 11 7 10 10 10 11 10 10 9 9 9 8 8 9 10 10 10 11
6 5 6 2 1 3 4 4 2 2 5 6 7 8 9 9 8 9 9 10 9 10 10 10 9 8 9 9 10 10 11 11 11 11 10 9 10 9 10 10 10 10 10 11
4 5 4 4 2 5 7 6 5 7 6 7 9 10 9 8 7 8 9 8 9 8 7 8 6 8 8 8 9 9 10 12 12 11 11 11 8 8 10 10 10 10 11 13
4 4 5 6 7 6 7 7 7 8 10 11 11 11 11 9 8 8 8 7 7 8 8 7 9 9 6 7 9 10 11 10 10 10 11 10 9 8 9 10 11 11 11 11
6 5 5 7 7 7 7 7 8 8 9 9 8 8 8 8 8 8 9 9 10 11 9 9 8 7 7 8 9 9 10 10 10 9 10 9 9 9 9 10 10 10 10 11
7 5 6 7 7 7 8 8 9 9 9 8 8 9 11 10 9 10 10 7 8 8 8 8 8 9 10 10 10 10 9 9 10 8 8 8 8 8 9 9 9 9 10 10
Wind_Direction
244 237 237 227 218 230 236 225 226 234 241 234 234 190 194 196 179 185 185 174 173 175 179 180 182 189 195 195 197 199 202 201 200 199 207 209 207 210 209 207 208 209 205 206
247 242 235 245 226 212 229 234 226 232 240 236 229 190 203 203 202 201 185 184 168 162 168 178 182 188 193 199 198 199 204 208 202 201 204 209 208 209 211 209 208 211 207 205
231 239 233 234 238 234 220 233 232 229 229 239 238 234 206 201 198 200 201 177 174 167 168 172 184 194 196 200 198 201 206 208 207 203 206 209 209 210 210 211 210 212 213 205
226 231 231 235 231 238 238 227 233 235 237 231 242 210 230 220 197 207 191 176 177 160 156 161 171 195 212 192 197 200 208 209 208 207 207 209 211 215 211 208 211 218 216 213
239 233 237 223 225 231 228 237 226 226 228 231 231 215 182 177 188 189 170 183 160 139 141 146 151 180 191 192 189 194 206 208 205 206 211 211 214 210 210 206 210 221 223 214
252 226 227 223 215 235 227 241 237 230 217 223 202 185 176 175 175 153 157 167 150 134 122 120 121 156 164 164 174 188 193 198 201 202 209 215 213 187 189 202 203 179 221 226
232 252 214 232 218 208 218 238 218 228 222 221 178 212 167 154 163 161 149 145 131 117 110 105 119 135 125 133 142 131 142 165 177 191 204 212 188 152 181 196 195 194 210 214
226 226 219 210 134 198 225 231 248 220 201 198 143 125 140 148 145 141 138 137 122 111 99 99 117 118 103 98 105 120 130 145 159 177 183 196 194 171 181 191 208 221 197 194
238 205 40 15 357 59 299 189 197 195 149 122 134 145 143 143 136 132 129 123 114 107 102 89 68 93 92 86 97 104 120 130 147 161 179 208 192 197 188 203 185 202 199 213
234 227 197 1 342 311 158 134 120 118 116 132 137 140 136 129 123 120 115 110 108 107 101 96 89 78 73 70 57 84 103 111 133 209 204 210 217 205 209 214 221 219 212 218
263 170 232 270 256 132 96 118 122 119 131 132 136 139 136 128 121 115 111 103 98 100 97 90 86 79 65 54 35 40 32 26 290 270 211 267 242 241 223 229 218 218 223 223
215 188 219 167 136 127 124 112 120 128 126 131 132 126 120 116 119 112 101 99 94 86 83 74 69 68 59 38 25 20 345 341 11 321 302 277 264 258 174 179 134 328 228 225
223 245 123 133 123 117 109 108 113 112 111 111 105 105 105 99 87 85 92 80 72 69 66 60 53 56 43 25 9 2 342 325 320 309 293 274 285 282 269 160 151 205 205 204
112 117 120 125 120 117 110 106 100 91 86 86 90 95 97 96 88 81 80 80 72 70 64 48 48 53 42 27 16 8 346 277 290 295 294 290 285 282 277 281 254 232 204 217
135 129 117 115 115 114 107 118 102 96 94 83 65 71 89 100 96 88 81 82 92 95 95 64 43 41 35 16 356 350 330 330 346 325 309 309 297 290 286 290 275 267 246 160
96 116 133 125 117 115 119 109 106 114 128 130 136 135 124 110 111 113 113 80 26 111 37 61 259 271 324 311 326 311 311 7 280 301 305 305 298 293 292 289 280 275 253 221
88 99 116 107 116 134 136 132 132 126 123 128 124 125 132 132 138 161 184 174 188 219 236 243 254 248 252 269 293 305 309 314 19 289 297 312 309 305 303 298 291 284 270 207
102 124 121 134 132 115 105 104 110 121 128 133 141 152 115 103 216 172 183 187 203 236 255 257 262 267 245 268 278 297 299 296 295 291 290 290 285 289 293 293 290 291 289 279
107 99 82 95 103 108 111 114 118 120 134 147 160 180 190 190 224 236 230 96 247 269 272 258 134 216 254 245 229 264 275 278 279 278 278 283 283 283 287 286 288 285 281 283
99 113 114 111 105 111 112 109 129 146 157 178 173 100 250 212 234 248 262 254 252 260 270 266 202 241 248 235 182 245 256 268 269 276 277 278 279 281 280 279 279 279 280 280
111 107 105 105 96 99 87 105 191 223 227 223 227 228 211 262 216 212 227 246 254 261 264 242 243 245 249 248 208 237 251 258 262 266 271 275 279 280 280 278 277 276 270 268
91 75 53 37 52 47 24 320 314 27 332 11 325 263 237 265 254 240 237 252 260 253 252 243 240 239 246 239 248 249 251 256 258 262 266 267 268 266 267 273 278 275 273 271
67 69 85 66 68 354 8 323 314 291 273 262 258 258 253 263 274 275 272 260 247 239 249 259 254 228 229 239 249 252 251 253 254 252 257 263 266 267 267 270 271 273 273 272
29 23 6 337 49 290 296 306 255 275 208 242 238 235 249 269 266 259 258 253 255 265 261 264 251 235 237 248 246 250 254 257 257 255 258 260 257 257 266 270 272 271 272 269
295 267 248 244 255 264 279 289 284 273 274 275 277 279 251 237 231 254 265 264 262 262 261 246 244 247 247 248 251 252 253 254 251 249 254 255 254 254 264 268 270 270 268 267
286 289 289 287 287 292 294 294 289 291 291 292 288 286 279 270 266 260 250 233 241 250 249 252 247 242 235 239 242 251 257 257 249 245 249 253 254 257 267 271 272 270 271 272
305 302 290 291 287 288 290 301 304 300 302 303 297 297 292 287 280 275 271 266 254 253 252 252 249 247 244 243 244 240 240 245 241 242 252 259 261 264 267 270 271 275 277 276